sat.trackr.live / text

‹ back to catalog

STARLINK-5993

NORAD 56449 · 2023-064B

PAYLOAD ACTIVE UNKNOWN

§ Identity

Operator
Country
US
Launch date
2023-05-10
Launch site
AFWTR
Launch vehicle
Mass (kg)
RCS (m²)

Purposes: comms

External: N2YO · Heavens-Above · Gunter

§ Orbital elements

Epoch: 2026-09-20T13:52:47.486496Z

Period
96.11 min
Inclination
70.0002°
Eccentricity
0.0003257
Mean motion
14.98335581 rev/d
Perigee alt
569.8 km
Apogee alt
574.3 km
Semi-major
6,950.2 km
B*
-2.3296e-5
RAAN
13.2688°
Arg perigee
268.3773°
Mean anomaly
91.7013°
Rev number
18,443

§ Raw data

STARLINK-59931 56449U 23064B   26263.57832739 -.00000371  00000+0 -23296-4 0  99942 56449  70.0002  13.2688 0003257 268.3773  91.7013 14.98335581184438

JSON: /api/v1/satellites/56449 · /tle

For live sub-satellite position, see the globe view (requires WebGL).

§ Visibility from observer

Set your observer location to see the next 7 days of passes ≥ 10°. The values pass through the URL so the page stays shareable.

No JS? Fill the form by hand. The geolocation button needs JavaScript.